Location: Eagle Observatory
(42.5300°N, 88.2800°W)
Time: 11:38:54
(UTC-05:00)

Hubble Space Telescope - Visible Passes

Search period start: 27 June 2016 00:00
Search period end: 07 July 2016 00:00
Orbit: 539 x 543 km, 28.5° (Epoch: 26 June)

Date Brightness Start Highest point End Pass type
(mag) Time Alt. Az. Time Alt. Az. Time Alt. Az.
01 Jul 3.0 21:54:47 10° S 21:54:58 10° S 21:54:58 10° S visible
02 Jul 2.9 21:44:31 10° SSW 21:45:42 11° S 21:46:01 11° S visible
03 Jul 2.9 21:34:30 10° SSW 21:35:51 11° S 21:36:56 10° SSE visible
04 Jul 2.9 21:24:37 10° SSW 21:26:01 11° S 21:27:24 10° SSE visible
05 Jul 2.9 21:14:53 10° SSW 21:16:10 11° S 21:17:27 10° SSE visible
06 Jul 3.0 21:05:19 10° SSW 21:06:19 11° S 21:07:19 10° S visible
